[[{"header":{"parameterUnit":"m.s-1","parameterCategory":1,"la1":30.2991,"la2":30.254,"lo1":-89.0895,"lo2":-89.0444,"dy":0.0017,"dx":0.0017,"nx":28,"ny":28,"refTime":"2025-04-12T21:00:00:Z","depth":0,"parameterNumber":2,"parameterNumberName":"U-component_of_WINDS"},"data":[0,0,0,0,0,0,0,0,0,0,0,0,0,0,0,0,0,0,0,0,0,0,0,0,0,0,0,0,0,0,0,0,0,0,0,0,0,0,0,0,0,0,0,0,0,0,0,0,0,0,0,0,0,0,0,0,0,0,-1.1655,-1.1654,0,-1.162,-1.1619,-1.1619,-1.1601,-1.1601,-1.16,-1.16,-1.1565,-1.1564,-1.1563,0,0,0,0,0,0,0,0,0,0,0,0,0,-1.1707,-1.1706,-1.1655,-1.1654,-1.1654,-1.162,-1.1619,-1.1619,-1.1601,-1.1601,-1.16,-1.16,-1.1566,-1.1564,-1.1563,0,0,0,0,0,0,0,0,0,0,0,0,0,-1.1679,-1.1706,-1.1655,-1.1641,-1.1639,-1.162,-1.1619,-1.1619,-1.1601,-1.16,-1.16,-1.16,-1.1566,-1.1565,-1.1563,-1.1556,0,0,-1.1559,-1.1559,0,0,0,0,0,0,0,0,-1.1681,-1.1677,-1.1643,-1.1641,-1.164,-1.1614,-1.1625,-1.1598,-1.1601,-1.1615,-1.16,-1.16,-1.1582,-1.1579,-1.1573,-1.1554,-1.1553,-1.1559,-1.1558,-1.1558,-1.1557,0,0,0,0,0,0,0,-1.1683,-1.1679,-1.1641,-1.1643,-1.1641,-1.1636,-1.1632,-1.162,-1.1599,-1.1614,-1.1612,-1.1609,-1.1581,-1.1574,-1.1572,-1.1552,-1.1559,-1.1558,-1.1557,-1.1556,-1.1526,-1.1526,0,0,0,0,0,0,-1.1687,-1.168,-1.1642,-1.164,-1.1661,-1.1635,-1.1631,-1.1623,-1.1599,-1.1596,-1.1609,-1.1608,-1.1576,-1.1573,-1.157,-1.156,-1.1558,-1.1556,-1.1556,-1.1526,-1.1526,-1.1526,0,0,0,0,0,0,-1.1688,-1.1684,-1.1643,-1.166,-1.1654,-1.1635,-1.1625,-1.1622,-1.1615,-1.1595,-1.1592,-1.1605,-1.1576,-1.1572,-1.156,-1.1559,-1.1556,-1.1554,-1.1526,-1.1526,-1.1526,-1.154,0,0,0,0,0,0,-1.169,-1.1684,-1.1681,-1.166,-1.1654,-1.1633,-1.1625,-1.1621,-1.1613,-1.1611,-1.1591,-1.1588,-1.1576,-1.1562,-1.1558,-1.1557,-1.1553,-1.1526,-1.1526,-1.1526,-1.1539,-1.154,-1.1541,0,0,0,0,0,-1.1691,-1.1686,-1.1681,-1.1676,-1.1649,-1.1633,-1.1629,-1.1615,-1.1613,-1.1609,-1.1597,-1.1588,-1.156,-1.1561,-1.1557,-1.1555,-1.1526,-1.1526,-1.1526,-1.1539,-1.154,-1.1541,0,0,0,0,0,0,-1.1708,-1.1683,-1.1677,-1.1664,-1.1651,-1.163,-1.1625,-1.1617,-1.1604,-1.1604,-1.1587,-1.1583,-1.1572,-1.1562,-1.1564,-1.1547,-1.1542,-1.1541,-1.1553,-1.1554,-1.1555,-1.1557,-1.1552,0,0,0,0,0,-1.171,-1.1698,-1.1678,-1.1669,-1.1662,-1.1645,-1.1638,-1.1628,-1.1614,-1.1608,-1.1594,-1.1581,-1.1569,-1.1561,-1.1549,-1.1538,-1.1534,-1.1535,-1.1536,-1.1537,-1.1536,-1.153,-1.153,-1.1527,-1.1527,-1.1527,0,0,-1.1714,-1.1699,-1.1693,-1.1672,-1.166,-1.1649,-1.164,-1.1629,-1.1621,-1.1606,-1.1593,-1.1583,-1.1567,-1.1555,-1.155,-1.1547,-1.1536,-1.1537,-1.1537,-1.1536,-1.153,-1.153,-1.1531,-1.1527,-1.1527,-1.1527,0,0,-1.1716,-1.1703,-1.1694,-1.1683,-1.1666,-1.1654,-1.1652,-1.1633,-1.1625,-1.1612,-1.1601,-1.1591,-1.1571,-1.156,-1.1551,-1.155,-1.1542,-1.1546,-1.1551,-1.1545,-1.1545,-1.1545,-1.1545,-1.1545,-1.1546,-1.1546,-1.1546,0,-1.1723,-1.1706,-1.1691,-1.168,-1.1671,-1.1658,-1.1649,-1.1639,-1.1618,-1.1613,-1.161,-1.1584,-1.1572,-1.1558,-1.1558,-1.1552,-1.1549,-1.1548,-1.1546,-1.1546,-1.1546,-1.1546,-1.1545,-1.1547,-1.1547,-1.1547,-1.1546,0,-1.1715,-1.1704,-1.1699,-1.1679,-1.167,-1.166,-1.1644,-1.1637,-1.1628,-1.1618,-1.1605,-1.159,-1.1575,-1.1571,-1.1563,-1.1556,-1.1555,-1.155,-1.1545,-1.1548,-1.1547,-1.1546,-1.1548,-1.1547,-1.1547,-1.1547,0,0,-1.1726,-1.1698,-1.1697,-1.1688,-1.1668,-1.1659,-1.1649,-1.1633,-1.1627,-1.1614,-1.1605,-1.1589,-1.1584,-1.1575,-1.1565,-1.156,-1.156,-1.1556,-1.1555,-1.1557,-1.1552,-1.1555,-1.1555,-1.1555,-1.1555,-1.1555,-1.1553,0,-1.1725,-1.1705,-1.1692,-1.1678,-1.1667,-1.1654,-1.1646,-1.1633,-1.1623,-1.1612,-1.1601,-1.159,-1.1584,-1.1579,-1.1573,-1.1561,-1.1559,-1.1561,-1.1547,-1.1546,-1.1551,-1.1555,-1.1558,-1.1557,-1.1552,-1.1552,-1.1552,0,-1.172,-1.1707,-1.1692,-1.1673,-1.1668,-1.166,-1.1646,-1.1636,-1.1621,-1.1614,-1.1604,-1.1595,-1.1584,-1.1581,-1.1566,-1.1568,-1.1562,-1.1555,-1.1555,-1.1552,-1.1549,-1.1552,-1.1556,-1.1556,-1.1552,-1.1552,-1.1552,0,-1.1729,-1.1707,-1.1695,-1.1688,-1.1666,-1.1661,-1.1652,-1.1637,-1.1629,-1.1617,-1.1611,-1.1598,-1.159,-1.158,-1.1568,-1.1567,-1.1554,-1.155,-1.1548,-1.1549,-1.1546,-1.1546,-1.1549,-1.1543,-1.1543,-1.1543,-1.1543,0,-1.1729,-1.172,-1.1699,-1.1692,-1.1682,-1.1667,-1.1658,-1.1647,-1.1635,-1.1625,-1.1614,-1.1606,-1.159,-1.158,-1.157,-1.1559,-1.1556,-1.155,-1.1548,-1.1551,-1.1552,-1.1546,-1.1546,-1.1542,-1.1543,-1.1543,-1.1543,0,-1.1736,-1.1722,-1.1708,-1.1689,-1.1683,-1.1677,-1.166,-1.1653,-1.1643,-1.1631,-1.1628,-1.1611,-1.1599,-1.1586,-1.1569,-1.1562,-1.1552,-1.1549,-1.1557,-1.1555,-1.1554,-1.1554,-1.1553,-1.1552,-1.1547,-1.1547,-1.1547,0,-1.1737,-1.1729,-1.1709,-1.1702,-1.1693,-1.1681,-1.1673,-1.1659,-1.165,-1.1634,-1.1628,-1.1615,-1.1604,-1.1585,-1.1572,-1.1559,-1.1555,-1.1555,-1.1553,-1.1557,-1.1555,-1.1555,-1.1554,-1.1556,-1.1556,-1.1556,-1.1556,0,-1.1739,-1.1732,-1.172,-1.1706,-1.1696,-1.1684,-1.1672,-1.1667,-1.165,-1.1642,-1.1629,-1.162,-1.1603,-1.159,-1.1576,-1.1567,-1.1559,-1.1557,-1.1556,-1.1559,-1.1564,-1.1561,-1.1558,-1.1557,-1.1557,-1.1557,-1.1557,-1.1557,-1.1743,-1.1736,-1.172,-1.1707,-1.1696,-1.1685,-1.1677,-1.1666,-1.1655,-1.1639,-1.1632,-1.1619,-1.1605,-1.1585,-1.1577,-1.1567,-1.1564,-1.1563,-1.1562,-1.1562,-1.1563,-1.1566,-1.1564,-1.1564,-1.1564,-1.1564,-1.1564,0,-1.1744,-1.1733,-1.1722,-1.1705,-1.1695,-1.1688,-1.1674,-1.1666,-1.1655,-1.1642,-1.1631,-1.1617,-1.1605,-1.1591,-1.1578,-1.1573,-1.1569,-1.157,-1.157,-1.1568,-1.1566,-1.1568,-1.1573,-1.1573,-1.1573,-1.1573,-1.1573,-1.1573,-1.1744,-1.1731,-1.1723,-1.1705,-1.1695,-1.1682,-1.1675,-1.1664,-1.1654,-1.1638,-1.1628,-1.1619,-1.1606,-1.1592,-1.1581,-1.1577,-1.1573,-1.1575,-1.157,-1.1568,-1.1568,-1.1567,-1.1569,-1.1574,-1.1574,-1.1572,-1.1572,-1.1572]},{"header":{"parameterUnit":"m.s-1","parameterCategory":1,"la1":30.2991,"la2":30.254,"lo1":-89.0895,"lo2":-89.0444,"dy":0.0017,"dx":0.0017,"nx":28,"ny":28,"refTime":"2025-04-12T21:00:00:Z","depth":0,"parameterNumber":3,"parameterNumberName":"V-component_of_WINDS"},"data":[0,0,0,0,0,0,0,0,0,0,0,0,0,0,0,0,0,0,0,0,0,0,0,0,0,0,0,0,0,0,0,0,0,0,0,0,0,0,0,0,0,0,0,0,0,0,0,0,0,0,0,0,0,0,0,0,0,0,4.4391,4.4391,0,4.4376,4.4376,4.4375,4.4364,4.4364,4.4364,4.4364,4.4346,4.4345,4.4345,0,0,0,0,0,0,0,0,0,0,0,0,0,4.441,4.441,4.4391,4.4391,4.4391,4.4376,4.4376,4.4375,4.4364,4.4364,4.4364,4.4364,4.4346,4.4346,4.4345,0,0,0,0,0,0,0,0,0,0,0,0,0,4.4399,4.441,4.4391,4.4384,4.4383,4.4376,4.4376,4.4375,4.4364,4.4364,4.4364,4.4364,4.4346,4.4346,4.4345,4.4344,0,0,4.4343,4.4343,0,0,0,0,0,0,0,0,4.44,4.4398,4.4385,4.4384,4.4383,4.4372,4.4376,4.4365,4.4364,4.4371,4.4364,4.4364,4.4354,4.4353,4.435,4.4343,4.4342,4.4343,4.4343,4.4342,4.4342,0,0,0,0,0,0,0,4.4401,4.4399,4.4385,4.4385,4.4384,4.4381,4.4379,4.4373,4.4364,4.4371,4.437,4.4368,4.4354,4.4351,4.435,4.4342,4.4343,4.4343,4.4342,4.4342,4.4333,4.4334,0,0,0,0,0,0,4.4403,4.44,4.4386,4.4385,4.4391,4.438,4.4378,4.4376,4.4364,4.4362,4.4368,4.4368,4.4352,4.4351,4.4349,4.4348,4.4342,4.4342,4.4341,4.4333,4.4334,4.4334,0,0,0,0,0,0,4.4403,4.4402,4.4386,4.4392,4.439,4.438,4.4377,4.4375,4.4373,4.4362,4.436,4.4367,4.4352,4.435,4.4346,4.4347,4.4342,4.4341,4.4333,4.4333,4.4334,4.4344,0,0,0,0,0,0,4.4404,4.4402,4.4402,4.4392,4.439,4.4383,4.4377,4.4375,4.4372,4.4371,4.4361,4.4359,4.4352,4.4347,4.4345,4.4346,4.4341,4.4333,4.4333,4.4334,4.4344,4.4345,4.4346,0,0,0,0,0,4.4405,4.4404,4.4402,4.44,4.4389,4.4383,4.4382,4.4375,4.4372,4.4371,4.4365,4.4359,4.4347,4.4346,4.4344,4.4345,4.4333,4.4333,4.4333,4.4343,4.4345,4.4346,0,0,0,0,0,0,4.4413,4.4403,4.44,4.4397,4.4391,4.4382,4.4381,4.4376,4.437,4.437,4.436,4.4358,4.4355,4.4349,4.4348,4.4344,4.4339,4.4339,4.4347,4.4349,4.435,4.4351,4.434,0,0,0,0,0,4.4415,4.4412,4.4403,4.4401,4.4398,4.439,4.4387,4.4382,4.4376,4.4373,4.4366,4.436,4.4355,4.4351,4.4346,4.4343,4.4341,4.4343,4.4344,4.4345,4.4345,4.4344,4.4345,4.4335,4.4335,4.4335,0,0,4.4418,4.4412,4.441,4.4403,4.4398,4.4394,4.4388,4.4384,4.4382,4.4372,4.4368,4.4363,4.4355,4.4352,4.435,4.4347,4.4347,4.4345,4.4346,4.4345,4.4344,4.4345,4.4346,4.4335,4.4335,4.4335,0,0,4.4422,4.4417,4.4416,4.4411,4.4404,4.4399,4.4399,4.439,4.4387,4.4382,4.4376,4.4372,4.4363,4.4358,4.4354,4.4358,4.4353,4.4357,4.4362,4.4361,4.4362,4.4362,4.4364,4.4365,4.4357,4.4357,4.4357,0,4.4426,4.4422,4.4415,4.4412,4.4409,4.4402,4.44,4.4396,4.4387,4.4385,4.4383,4.4372,4.4366,4.4362,4.4363,4.436,4.436,4.4358,4.4362,4.4363,4.4363,4.4365,4.4366,4.4357,4.4357,4.4357,4.4357,0,4.4428,4.4425,4.4424,4.4418,4.4414,4.4412,4.4405,4.4402,4.4398,4.4393,4.4389,4.4382,4.4376,4.4374,4.4369,4.437,4.4368,4.4364,4.4359,4.4365,4.4367,4.4367,4.4358,4.4358,4.4358,4.4358,0,0,4.4436,4.4427,4.4427,4.4424,4.4417,4.4414,4.4411,4.4406,4.4404,4.4399,4.4397,4.439,4.4387,4.4383,4.4377,4.4377,4.4381,4.4373,4.4372,4.4375,4.4382,4.4385,4.4386,4.4378,4.4378,4.4378,4.4383,0,4.4439,4.4435,4.443,4.4428,4.4425,4.4419,4.4417,4.4412,4.4407,4.4404,4.4399,4.4394,4.439,4.4388,4.4387,4.4381,4.4382,4.438,4.4375,4.4375,4.4378,4.4387,4.439,4.4395,4.4383,4.4383,4.4383,0,4.4442,4.4438,4.4436,4.443,4.4429,4.4427,4.4423,4.442,4.4414,4.4411,4.4407,4.4402,4.4399,4.4395,4.4391,4.439,4.4388,4.4385,4.4385,4.4384,4.438,4.4386,4.4396,4.4397,4.4384,4.4384,4.4384,0,4.4449,4.4443,4.4442,4.4439,4.4432,4.4431,4.4428,4.4423,4.442,4.4416,4.4414,4.4409,4.4407,4.4403,4.4397,4.4394,4.4394,4.4389,4.4391,4.4391,4.4391,4.4391,4.4401,4.4389,4.4389,4.4389,4.4389,0,4.4453,4.4452,4.4445,4.4444,4.4443,4.4436,4.4435,4.4432,4.4427,4.4425,4.4419,4.4417,4.4408,4.4406,4.4401,4.4399,4.4397,4.4395,4.4393,4.4395,4.4396,4.4394,4.4393,4.4389,4.4389,4.4389,4.4389,0,4.446,4.4455,4.4453,4.4447,4.4445,4.4445,4.4439,4.4438,4.4434,4.4432,4.4431,4.4424,4.442,4.4414,4.4408,4.4404,4.4404,4.4401,4.4406,4.4405,4.4408,4.4408,4.4417,4.4418,4.4405,4.4406,4.4406,0,4.4463,4.4462,4.4457,4.4455,4.4453,4.4451,4.4449,4.4443,4.4441,4.4435,4.4435,4.4431,4.4428,4.4423,4.4417,4.4413,4.441,4.4414,4.4409,4.4412,4.4411,4.4411,4.4411,4.4414,4.4415,4.4415,4.4415,0,4.4469,4.4467,4.4464,4.4462,4.446,4.4457,4.4454,4.4453,4.4446,4.4444,4.4442,4.4439,4.4434,4.4431,4.4426,4.4422,4.4418,4.4416,4.4417,4.4419,4.4422,4.4421,4.4409,4.4416,4.4416,4.4416,4.4416,4.4416,4.4474,4.4474,4.447,4.4468,4.4465,4.4463,4.4462,4.4458,4.4456,4.4452,4.4449,4.4446,4.4442,4.4435,4.4432,4.443,4.4427,4.4428,4.4428,4.4428,4.4429,4.4422,4.4429,4.4429,4.4429,4.4429,4.4429,0,4.448,4.4478,4.4476,4.4473,4.4471,4.4468,4.4465,4.4463,4.4462,4.4458,4.4456,4.4453,4.445,4.4444,4.4441,4.444,4.4438,4.444,4.444,4.4439,4.4431,4.4432,4.4442,4.4442,4.4442,4.4442,4.4442,4.4442,4.4483,4.4482,4.448,4.4479,4.4476,4.4474,4.4473,4.4471,4.4468,4.4466,4.4464,4.4461,4.4456,4.4453,4.445,4.4449,4.4448,4.445,4.4448,4.4441,4.4439,4.4438,4.4439,4.445,4.445,4.4456,4.4456,4.4456]}]]